User: anonymous   Login
Location: Caltech
(34.1382°N, 118.1253°W)
Time: 06:43:26
(UTC-07:00)
Language:

IDEFIX/ARIANE 42P - Orbit

View from above orbital plane
View from above orbital plane
View from above satellite
View from above satellite

Ground track
Ground track

The orbit data is extracted from the following two-line orbital elements,

1 27422U 02021B   15145.66502107  .00000064  00000-0  41359-4 0  9991
2 27422 098.2585 176.0919 0011299 314.4476 045.5782 14.29184052679043
Epoch (UTC): 25 May 2015 15:57:37
Eccentricity: 0.0011299
inclination: 98.2585°
perigee height: 786 km
apogee height: 802 km
right ascension of ascending node: 176.0919°
argument of perigee: 314.4476°
revolutions per day: 14.29184052
mean anomaly at epoch: 45.5782°
orbit number at epoch: 67904

The dashed part of the orbit path shows where the satellite is in the earth's shadow,  

DLR